Location: Oslo
(59.9170°N, 10.7500°E)
Time: 12:35:41
(UTC+02:00)

ISS - Pass Details

Date: 24 March 2019
Orbit: 408 x 410 km, 51.6° (Epoch: 25 April)

Event Time Altitude Azimuth Distance (km) Brightness Sun altitude
Rises 21:03:55 0° 231° (SW) 2,334 0.2 -17.4°
Reaches altitude 10° 21:06:28 10° 211° (SSW) 1,473 -1.1 -17.7°
Enters shadow 21:06:50 12° 206° (SSW) 1,375 -1.3 -17.7°
